Regional Weather Roundup
Issued by NWS

Home | Current Version | Previous Version | Text Only | Print | Product List | Glossary Off
Versions: 1 2 3 4 5 6 7 8 9 10 11 12 13 14 15 16 17 18 19 20 21 22 23 24 25 26 27 28 29 30 31 32 33 34 35 36 37 38 39 40 41 42 43 44 45 46 47 48 49 50

836
ASUS45 KBOU 240807
RWRCO

WEATHER ROUNDUP FOR COLORADO
NATIONAL WEATHER SERVICE DENVER/BOULDER CO
200 AM MDT WED MAY 24 2017

NOTE: "FAIR" INDICATES FEW OR NO CLOUDS BELOW 12000 FEET WITH NO
SIGNIFICANT WEATHER AND/OR OBSTRUCTIONS TO VISIBILITY.

COZ001>005-013-030-031-240900-
...NORTHWEST COLORADO...

CITY           SKY/WX    TMP DP  RH WIND       PRES   REMARKS
CRAIG          FAIR      37  33  85 CALM      30.09F
HAYDEN         FAIR      43  30  61 E9        30.11F
MEEKER         FAIR      42  32  67 E6        30.12F
RABBIT EARS PA FAIR      32  30  93 W15G21    30.24F WCI  22
STEAMBOAT SPGS MOCLDY    38  32  81 CALM      30.13F
WALDEN           N/A     32  28  86 SE8       30.15F WCI  25
$$

COZ006>008-011-240900-
...WEST CENTRAL VALLEYS...

CITY           SKY/WX    TMP DP  RH WIND       PRES   REMARKS
GRAND JUNCTION FAIR      58  30  34 SE18      30.04F
MONTROSE       FAIR      50  28  42 SE10      30.11F
EAGLE          FAIR      39  31  72 E3        30.18F
RIFLE          FAIR      45  30  55 CALM      30.11F
DELTA          FAIR      51  31  46 NE6       30.09F
NUCLA          FAIR      50  30  46 CALM      30.16S
$$

COZ017>023-064>068-240900-
...SOUTHWEST COLORADO...

CITY           SKY/WX    TMP DP  RH WIND       PRES   REMARKS
DURANGO        FAIR      42  21  43 E8        30.12F
CORTEZ         FAIR      41  33  73 E5        30.11F
PAGOSA SPRINGS FAIR      41  16  35 CALM      30.17F
TELLURIDE      FAIR      41  26  55 SE5       30.28F
WOLF CREEK PAS FAIR      34  21  60 NW13G22   30.38F WCI  25
$$

COZ009-010-012-014-032>034-037-058>063-240900-
...CENTRAL COLORADO...

CITY           SKY/WX    TMP DP  RH WIND       PRES   REMARKS
ASPEN          FAIR      35  27  72 SW7       30.19F WCI  29
BUENA VISTA    FAIR      38  25  61 W3        30.16F
COPPER MTN     FAIR      34  21  60 NW7       30.33S WCI  28
BERTHOUD PASS  FAIR      27  14  59 NW37G44   30.25F WCI   9
COTTONWOOD PAS FAIR      43  18  36 NW9G21    30.21F
GUNNISON       FAIR      34  26  72 CALM      30.21F
KREMMLING      FAIR      37  32  81 CALM      30.18S
LEADVILLE      FAIR      30  20  66 NE9       30.23F WCI  22
MONARCH PASS   FAIR      30  16  55 SW25      30.41F WCI  16
SALIDA         FAIR      41  24  52 W8        30.22F
SUNLIGHT       FAIR      34  23  64 SW9       30.33F WCI  26
WILKERSON PASS FAIR      32  19  59 NW10G17   30.26F WCI  24
$$

COZ069>075-240900-
...SAN LUIS VALLEY/SANGRE DE CRISTO MOUNTAINS...

CITY           SKY/WX    TMP DP  RH WIND       PRES   REMARKS
ALAMOSA        FAIR      38  21  50 CALM      30.14F
DEL NORTE      FAIR      40  17  38 W9        30.17F
LA VETA PASS   FAIR      34  21  60 SW20      30.32F WCI  22
SAGUACHE       FAIR      41  21  45 N7        30.17F
$$

COZ035-036-038>040-240900-
...NORTHERN COLORADO FRONT RANGE...

CITY           SKY/WX    TMP DP  RH WIND       PRES   REMARKS
DENVER INTL AP FAIR      45  34  65 S12       30.01F
DMNS CITY PARK   N/A     45  35  68 E8        30.00F
AURORA         PTCLDY    41  34  75 S10       30.03F
FRONT RANGE AP FAIR      41  36  81 S8        30.02F
ERIE MUNI ARPT FAIR      42  37  83 S3        30.00F
BOULDER MUN AP FAIR      45  34  65 SW3       30.00F
CENTENNIAL     FAIR      42  35  76 S8        30.02F
BROOMFIELD     FAIR      45  34  65 CALM      30.02F
FORT COLLINS   FAIR      45  36  70 S6        30.00F
LONGMONT       FAIR      43  36  75 W3        30.02F
$$

COZ041-046-047-076>085-087-088-240900-
...PIKES PEAK/PALMER DIVIDE AND SOUTHERN FOOTHILLS...

CITY           SKY/WX    TMP DP  RH WIND       PRES   REMARKS
COLO. SPRINGS  FAIR      46  33  60 S7        30.07F
A. F. ACADEMY  FAIR      34  30  85 N6        30.06F WCI  29
SCHRIEVER AFB  FAIR      42  31  66 W7        30.07F
CHEYENNE MTN   FAIR      43  29  58 CALM      30.02F
ELLICOTT       FAIR       1  32 100 NW3       30.06F
FALCON         FAIR      37  30  78 W3        30.08F
FORT CARSON    FAIR      47  33  59 S10       30.05F
LIMON          FAIR      33  31  92 CALM      30.03F
MONUMENT HILL  FAIR      32  30  93 S6        30.08F WCI  26
CANON CITY     NOT AVBL
WALSENBURG     FAIR      43  37  81 SW12      30.07F
TRINIDAD       FAIR      42  34  73 W13       30.08F
$$

COZ042>045-048>051-090-091-240900-
...NORTHEAST COLORADO...

CITY           SKY/WX    TMP DP  RH WIND       PRES   REMARKS
GREELEY ARPT   FAIR      42  38  85 CALM      30.00F
AKRON          FAIR      40  33  76 SW6       29.99F
BURLINGTON     FAIR      36  34  92 W7        30.00F
WRAY           FAIR      36  36 100 W8        30.00R
YUMA           FAIR      34  32  93 SW3       29.99F
STERLING       FAIR      37  36  93 S6        29.98F
HOLYOKE        NOT AVBL
FORT MORGAN    FAIR      38  32  76 SW6       30.00F
$$

COZ086-089-092>099-240900-
...SOUTHEAST COLORADO...

CITY           SKY/WX    TMP DP  RH WIND       PRES   REMARKS
PUEBLO         FAIR      43  38  82 CALM      30.03F
LA JUNTA       FAIR      47  38  71 W13       30.01F
LAMAR          FAIR      39  36  89 CALM      29.99F
SPRINGFIELD      N/A     40  36  86 W9        30.00F
$$




USA.gov is the U.S. government's official web portal to all federal, state and local government web resources and services.